Location: Bad Salzschlirf
(50.3750°N, 9.3000°E)
Time: 05:13:16
(UTC+01:00)

ISS - Pass Details

Date: 12 November 2018
Orbit: 402 x 408 km, 51.6° (Epoch: 17 November)

Event Time Altitude Azimuth Distance (km) Brightness Sun altitude
Exits shadow 05:51:34 26° 227° (SW) 830 -2.6 -15.9°
Maximum altitude 05:51:57 27° 213° (SSW) 812 -2.6 -15.9°
Drops below altitude 10° 05:54:47 10° 154° (SSE) 1,458 -0.5 -15.4°
Sets 05:57:02 0° 141° (SE) 2,316 0.8 -15.1°
